World > North America > United States > Ohio > Chauncey  

Chauncey, OH Hourly Weather Updates

Feedback E-mail the Weather

Quick Clicks

Chauncey, OH Weather Maps

°F °C°F °C
Chauncey Weather Map
UTC Time: 5/27/2024, 09:36
Your Time:

Chauncey, OH Regional Weather

Expires:202405271000;;955357
ASUS41 KCLE 270912
RWRCLE
OHIO REGIONAL WEATHER ROUNDUP
NATIONAL WEATHER SERVICE WILMINGTON, OH
500 AM EDT MON MAY 27 2024

NOTE: "FAIR" INDICATES FEW OR NO CLOUDS BELOW 12,000 FEET WITH NO
SIGNIFICANT WEATHER AND/OR OBSTRUCTIONS TO VISIBILITY.


OHZ036-037-039>041-045>050-054>059-063>069-073>076-082>088-271000-
  CENTRAL AND SOUTHEAST OHIO
  
CITY           SKY/WX    TMP DP  RH WIND       PRES   REMARKS
COLUMBUS       MOCLDY    65  63  93 S5        29.55R                  
OSU AIRPORT    CLOUDY    67  64  90 S9        29.55R                  
BOLTON FIELD   FAIR      64  64  99 S12G17    29.57S                  
RICKENBACK AFB FAIR      64  63  96 S9        29.56R                  
NEWARK         FAIR      65  62  90 S6        29.56F                  
MARION         CLOUDY    65  62  90 S10       29.53F                  
LANCASTER      MOCLDY    65  63  93 S5        29.58R                  
ZANESVILLE     MOCLDY    64  62  93 SE10      29.56F                  
NEW PHILLY     LGT RAIN  64  63  96 VRB7      29.63F                  
$$
  

SKY/WX - Weather  TMP - Temperature  DP - Dew Point  RH - Humidity
WIND - Wind Direction/Speed PRES - Barometric Pressure VSB - Visibility
WCI - Wind Chill Index E13G22 Wind - East Wind 13 mph/Gusts of 22 mph

Trending Headlines

Trending Entertainment Headlines

Chauncey Radar Loop

Use the map search tool if you want to place a location marker on the radar map...

Chauncey Quick Facts

National Two Day Weather Forecast


E-mail the Chauncey Weather Forecast

Voice your opinion or tell us about page issues...